Tracking 30995 objects as of 7-Jul-2025
HD Live streaming from Space Station
objects crossing your sky now

STARLINK-4340

Track STARLINK-4340 now!
10-day predictions
STARLINK-4340 is classified as:


NORAD ID: 53494
Int'l Code: 2022-099AF
Perigee: 568.7 km
Apogee: 571.6 km
Inclination: 97.7 °
Period: 95.9 minutes
Semi major axis: 6941 km
RCS: Unknown
Launch date: August 12, 2022
Source: United States (US)
Launch site: AIR FORCE WESTERN TEST RANGE (AFWTR)
Your satellite tracking list
Your tracking list is empty




NASA's NSSDC Master Catalog

Two Line Element Set (TLE):
1 53494U 22099AF  25187.34372808  .00002248  00000-0  17956-3 0  9992
2 53494  97.6558 308.6880 0002072  79.7514 280.3944 15.01250691159021
Source of the keplerian elements: AFSPC